Buffalo, NY

11:01 PM EST on November 24, 2017 (GMT -0500)
Buffalo Niagara International

Weather History for KBUF - August, 2012

Change the Weather History Date:

Thursday, August 16, 2012

  Actual Average Record
Temperature  
Mean Temperature 72 °F 70 °F  
Max Temperature 83 °F 79 °F 92 °F (1935)
Min Temperature 60 °F 61 °F 44 °F (1880)
Degree Days  
Heating Degree Days 0 1  
Month to date heating degree days 0 1  
Since 1 June heating degree days 48 74  
Since 1 July heating degree days 0 10  
Cooling Degree Days 7 5  
Month to date cooling degree days 142 94  
Year to date cooling degree days 720 420  
Since 1 June cooling degree days 626 394  
Growing Degree Days 21 (Base 50)    
Moisture  
Dew Point 58 °F    
Average Humidity 67    
Maximum Humidity 97    
Minimum Humidity 36    
Precipitation  
Precipitation 0.00 in 0.10 in 2.71 in (1879)
Month to date precipitation 0.99 1.72  
Year to date precipitation 16.49 23.62  
Snow  
Snow 0.00 in 0.00 in 0.00 in ()
Month to date snowfall 0.0 0.0  
Since 1 June snowfall 0.0 0.0  
Since 1 July snowfall 0.0 0.0  
Snow Depth 0.00 in    
Sea Level Pressure  
Sea Level Pressure 29.91 in    
Wind  
Wind Speed 9 mph (SSW)    
Max Wind Speed 21 mph    
Max Gust Speed 24 mph    
Visibility 9 miles    
Events      
T = Trace of Precipitation, MM = Missing Value Source: NWS Daily Summary

Daily Weather History Graph

Daily Weather History Graph

Search for Another Location

Airport or City:

Trip Planner

Search our weather history database for the weather conditions in past years. The results will help you decide how hot, cold, wet, or windy it might be!

Date:

Astronomy

Aug. 16, 2012 Rise Set
Actual Time 6:22 AM EDT 8:14 PM EDT
Civil Twilight 5:52 AM EDT 8:45 PM EDT
Nautical Twilight 5:14 AM EDT 9:22 PM EDT
Astronomical Twilight 4:34 AM EDT 10:02 PM EDT
Moon 5:19 AM EDT (8/16) 7:22 PM EDT (8/16)
Length of Visible Light 14h 53m
Length of Day
13h 52m
Waning Crescent, 1% of the Moon is Illuminated
Aug 16
Waning Crescent
Aug 17
New
Aug 24
First Quarter
Aug 31
Full
Sep 8
Last Quarter

Hourly Weather History & Observations

Time (EDT) Temp. Heat Index Dew Point Humidity Pressure Visibility Wind Dir Wind Speed Gust Speed Precip Events Conditions
12:54 AM 64.9 °F - 57.9 °F 78% 29.96 in 10.0 mi South 6.9 mph - N/A   Scattered Clouds
1:54 AM 64.0 °F - 57.9 °F 80% 29.96 in 10.0 mi South 4.6 mph - N/A   Partly Cloudy
2:54 AM 62.1 °F - 57.9 °F 86% 29.96 in 10.0 mi South 4.6 mph - N/A   Partly Cloudy
3:54 AM 62.1 °F - 57.9 °F 86% 29.97 in 8.0 mi South 5.8 mph - N/A   Partly Cloudy
4:54 AM 61.0 °F - 57.9 °F 90% 29.96 in 8.0 mi SSW 4.6 mph - N/A   Partly Cloudy
5:54 AM 61.0 °F - 57.9 °F 90% 29.97 in 6.0 mi SSW 4.6 mph - N/A   Scattered Clouds
6:54 AM 61.0 °F - 59.0 °F 93% 29.99 in 4.0 mi SSW 3.5 mph - N/A   Scattered Clouds
7:54 AM 64.9 °F - 61.0 °F 87% 29.99 in 4.0 mi SSW 5.8 mph - N/A   Scattered Clouds
8:54 AM 70.0 °F - 63.0 °F 78% 29.97 in 9.0 mi SW 5.8 mph - N/A   Scattered Clouds
9:54 AM 73.0 °F - 59.0 °F 61% 29.95 in 10.0 mi West 5.8 mph - N/A   Scattered Clouds
10:54 AM 75.9 °F - 60.1 °F 58% 29.95 in 10.0 mi SW 6.9 mph - N/A   Scattered Clouds
11:54 AM 78.1 °F - 60.1 °F 54% 29.96 in 10.0 mi WSW 12.7 mph 18.4 mph N/A   Scattered Clouds
12:54 PM 80.1 °F 80.1 °F 55.0 °F 42% 29.95 in 10.0 mi SW 12.7 mph 18.4 mph N/A   Scattered Clouds
1:54 PM 80.1 °F 80.0 °F 54.0 °F 40% 29.93 in 10.0 mi SW 11.5 mph 19.6 mph N/A   Mostly Cloudy
2:54 PM 81.0 °F - 52.0 °F 36% 29.91 in 10.0 mi WSW 12.7 mph - N/A   Mostly Cloudy
3:54 PM 82.0 °F 81.3 °F 54.0 °F 38% 29.90 in 10.0 mi WSW 15.0 mph 19.6 mph N/A   Mostly Cloudy
4:54 PM 81.0 °F 80.5 °F 54.0 °F 39% 29.88 in 10.0 mi WSW 12.7 mph - N/A   Mostly Cloudy
5:54 PM 79.0 °F - 57.9 °F 48% 29.86 in 10.0 mi SW 10.4 mph - N/A   Overcast
6:54 PM 79.0 °F - 59.0 °F 50% 29.82 in 10.0 mi SSW 8.1 mph - N/A   Mostly Cloudy
7:54 PM 77.0 °F - 57.9 °F 52% 29.81 in 10.0 mi South 5.8 mph - N/A   Mostly Cloudy
8:54 PM 75.9 °F - 59.0 °F 56% 29.80 in 10.0 mi SSE 8.1 mph - N/A   Mostly Cloudy
9:54 PM 75.0 °F - 59.0 °F 57% 29.80 in 10.0 mi SSE 9.2 mph - N/A   Mostly Cloudy
10:54 PM 73.9 °F - 60.1 °F 62% 29.78 in 10.0 mi SSE 8.1 mph - N/A   Mostly Cloudy
11:54 PM 77.0 °F - 60.1 °F 56% 29.78 in 10.0 mi SSW 17.3 mph - N/A   Mostly Cloudy